Showing default

COSMOS 158, 2801

Orbit data source: Space-Track

COSMOS 158, 2801 is a payload satellite owned by OKB-10 (CIS) in LEO that was launched on Mon, 15 May 1967 UTC via a KOSMOS 11K65M launch vehicle from the Plesetsk Missile And Space Complex (PKMTR). Payload-class satellites include a variety of spacecraft equipped with specific instruments for various scientific and technological missions. These include communications satellites like Starlink; space stations such as the ISS; scientific satellites like the Hubble; Earth observation satellites from companies like Planet Labs, Umbra, and HawkEye 360; GPS; miniature CubeSats for education and research; and military/defense satellites.

Loading next visibility...
Identifier
2801, 1967-045A
Orbit
LEO
Country
Flag of CISCIS
Related business
Manufacturer
OKB-10
Mission
Defense Navigation
Bus & Motor
KAUR-1 11F617, Unknown motor
Mass
800 kg wet, 800 kg dry
Launch date (UTC)
1967-05-15 (58 years ago)
Launch vehicle
KOSMOS 11K65M
Launch site
Plesetsk Missile And Space Complex (PKMTR)
Object type
Payload
Rocket body
Debris
Shape & HBR
Cyl + 1 Rod, 8.5 m
Radar Cross Section
9.978 m², Large (>1 m²)

Expand to show TLE details & history
Last TLE update: 11 hours ago

TLE from 11 hours ago
0 COSMOS 158
1 02801U 67045A   25245.71877012  .00000104  00000-0  43113-4 0  9995
2 02801  74.0382 233.4806 0056454 152.8545 207.5580 14.36897122 55131
Epoch: 2025-09-02T17:15Z
TLE epoch observation values (Epoch: 2025-09-02T17:15:01.738Z)
Latitude
-0.00005°
Longitude
-7.38264°
Altitude
807.205 km
Speed
7.431 km/s
True Right ascension
15h 33m 55s
True Declination
0° 00' 00"
Sunlit
Object was in daylight at epoch
Visualization orbit readout
Latitude
Unknown
Longitude
Unknown
Altitude
Unknown
Speed
Unknown
Apparent Right ascension
Unknown
Apparent Declination
Unknown
Sunlit
N/A
Visualization observer readout
Local Sidereal Time
19:44:38
Azimuth
Unknown
Elevation
Unknown
Doppler factor
Unknown
Orbital elements
Apogee altitude
806.725 km
Perigee altitude
726.058 km
Semi-major axis
7,144.529 km
Eccentricity
0.00565
Inclination
74.0382°
RAAN
233.4806°
Arg. of periapsis
152.8545°
True anomaly
207.26057°
Mean anomaly
207.558°
Eccentric anomaly
207.4091°
Mean motion
3.59404 °/min
Orbital period
100.17 mins
BSTAR
0.000043113
Loading maneuver chart data...
Computing Atmospheric mass density...
Loading historical data...
Loading historical data...
Loading historical data...
Loading historical data...
Loading historical data...
Loading historical data...
Loading historical data...
Other satellites on launch #45 in the year 1967 (1967-05-15 UTC)

Documentation

Showing up to 5 results
|